Regional Weather Roundup
Issued by NWS Jackson, KY

Home | Current Version | Previous Version | Graphics & Text | Print | Product List | Glossary On
Versions: 1 2 3 4 5 6 7 8 9 10 11 12 13 14 15 16 17 18 19 20 21 22 23 24 25 26 27 28 29 30 31 32 33 34 35 36 37 38 39 40 41 42 43 44 45 46 47 48 49 50
000
ASUS43 KJKL 040010
RWRJKL

EAST KENTUCKY HOURLY WEATHER ROUNDUP
NATIONAL WEATHER SERVICE JACKSON KY
800 PM EDT FRI JUL 03 2015

NOTE: "FAIR" INDICATES FEW OR NO CLOUDS BELOW 12,000 FEET WITH
NO SIGNIFICANT WEATHER AND/OR OBSTRUCTIONS TO VISIBILITY.

* THESE REPORTS ARE NOT UNDER NWS QUALITY CONTROL AND MAY NOT
  REPORT WEATHER SUCH AS PRECIPITATION AND FOG.

KYZ079-080-083-085-087-088-110-112-115-119-120-040100
...EASTERN KENTUCKY...

CITY           SKY/WX    TMP DP  RH WIND       PRES   REMARKS
JACKSON        RAIN      69  67  93 VRB5      29.88S FOG
6HR MIN TEMP:  68; 6HR MAX TEMP:  77; 6HR PCP:  0.07;

LONDON         HVY RAIN  72  66  81 MISG      29.90R
6HR MIN TEMP:  71; 6HR MAX TEMP:  80; 6HR PCP:  0.40;

SOMERSET*      TSTM      68  68 100 SW6       29.90R VSB 1
MONTICELLO*    CLOUDY    72  71  96 SW10      29.92R THUNDER FOG
6HR MIN TEMP:  71; 6HR MAX TEMP:  82;

MIDDLESBORO*   CLOUDY    74  70  89 CALM      29.90S
6HR MIN TEMP:  73; 6HR MAX TEMP:  77; 6HR PCP:  0.09;

HARLAN APT*      N/A     70  70 100 SE3       29.91S
HAZARD APT*    LGT RAIN  70  70 100 SW5       29.89R
BLACK MTN*       N/A     63  63 100 W1          N/A
PIKEVILLE APT* MOCLDY    72  68  88 CALM      29.89S
BIG SANDY*     CLOUDY    74  69  83 CALM      29.87S
6HR MIN TEMP:  72; 6HR MAX TEMP:  77;

MOREHEAD APT*  CLOUDY    70  68  94 N5        29.89R
$$

KYZ035-036-041-042-044-050-067-078-099-040100
...CENTRAL KENTUCKY...

CITY           SKY/WX    TMP DP  RH WIND       PRES   REMARKS
MT STERLING*   CLOUDY    70  70 100 CALM      29.89R
FLEMING/MASON* CLOUDY    68  68 100 CALM      29.88R
DANVILLE*      CLOUDY    70  68  94 SW3       29.87F
RICHMOND*      CLOUDY    68  66  94 CALM      29.86F
LEXINGTON      CLOUDY    70  68  93 S8        29.86R
6HR MIN TEMP:  70; 6HR MAX TEMP:  78; 6HR PCP:  0.23;

FRANKFORT      CLOUDY    71  67  87 N13G20    29.86R
6HR MIN TEMP:  72; 6HR MAX TEMP:  79; 6HR PCP:  0.18;

$$

KYZ091>093-OHZ055-061-077-WVZ005-015-034-035-042-040100
...SOUTHERN OHIO/WEST VIRGINIA...

CITY           SKY/WX    TMP DP  RH WIND       PRES   REMARKS
COVINGTON      CLOUDY    73  64  73 E10       29.87R
COLUMBUS       LGT RAIN  70  65  84 SE6       29.88R
DAYTON         CLOUDY    71  66  84 NE3       29.89F
WILMINGTON     PTSUNNY   68  63  84 E5        29.87F
HUNTINGTON     TSTM      70  68  93 SW3       29.85R
CHARLESTON     MOCLDY    73  70  90 CALM      29.86R
PINEVILLE*     MOCLDY    71  71 100 MISG      29.96S
BECKLEY        MOCLDY    68  65  90 S6        29.95S
BLUEFIELD      CLOUDY    71  63  75 W3        29.98S
$$

VAZ002-007-008-TNZ017-027-036-066-071-040100
...SOUTHWEST VIRGINIA/EAST TENNESSEE...

CITY           SKY/WX    TMP DP  RH WIND       PRES   REMARKS
WISE*          CLOUDY    70  68  94 SW6       29.98R
JONESVILLE*      N/A    N/A N/A N/A MISG        N/A
ABINGDON*      CLOUDY    71  70  96 SW6       29.95S
BRISTOL        CLOUDY    72  69  90 SW10      29.93S
KNOXVILLE      CLOUDY    75  68  78 S10       29.92S
OAK RIDGE      MOCLDY    76  68  76 VRB6      29.93R
CROSSVILLE     CLOUDY    73  64  73 W10G18    29.96F
NASHVILLE      CLOUDY    75  68  78 SW5       29.91S
$$

...KEY TO REMARKS...
VSB - VISIBILITY IN MILES
WCI - WIND CHILL INDEX
HX  - HEAT INDEX

$$



USA.gov is the U.S. government's official web portal to all federal, state and local government web resources and services.